Voltar ao catálogo

FENGYUN 1C DEB

AtivoPO
NORAD 35174·DEBRIS·🇨🇳 China

Lançado May 10, 1999 de Taiyuan Satellite Launch Center

Loading…

Próximas Passagens (próximas 24 horas)

TLE

AtualizadoSource: Space-Track

Época: Sep 14, 2026, 07:25 UTC

1 35174U 99025DNE 26257.30962041  .00031670  00000-0  12879-2 0  9998
2 35174  98.9595 283.0090 0101705 355.6191   4.4138 15.19771065943236

Acompanhe FENGYUN 1C DEB em tempo real com AllMySat

Download on the App Store